Weather History for Lubbock, TX

Change the Weather History Date:

Friday, March 28, 2014

  Actual Average Record
Temperature  
Mean Temperature 60 °F 55 °F  
Max Temperature 76 °F 70 °F 90 °F (1963)
Min Temperature 44 °F 40 °F 16 °F (1931)
Degree Days  
Heating Degree Days 5 10  
Month to date heating degree days 426 385  
Since 1 July heating degree days 3278 3124  
Cooling Degree Days 0 0  
Month to date cooling degree days 2 0  
Year to date cooling degree days 2 0  
Growing Degree Days 10 (Base 50)    
Moisture  
Dew Point 28 °F    
Average Humidity 39    
Maximum Humidity 65    
Minimum Humidity 12    
Precipitation  
Precipitation 0.00 in 0.04 in 1.08 in (1944)
Month to date precipitation 0.17 0.99  
Year to date precipitation 0.33 2.39  
Snow  
Snow 0.00 in 0.00 in - ()
Month to date snowfall T 0.5  
Since 1 July snowfall 4.2 7.9  
Snow Depth 0.00 in    
Sea Level Pressure  
Sea Level Pressure 29.83 in    
Wind  
Wind Speed 11 mph (North)    
Max Wind Speed 30 mph    
Max Gust Speed 37 mph    
Visibility 10 miles    
Events      
T = Trace of Precipitation, MM = Missing Value Source: NWS Daily Summary

Daily Weather History Graph

Daily Weather History Graph

Search for Another Location

Airport:

Trip Planner

Search our weather history database for the weather conditions in past years. The results will help you decide how hot, cold, wet, or windy it might be!

Date:

Astronomy

Mar. 28, 2014 Rise Set
Actual Time 7:40 AM CDT 8:04 PM CDT
Civil Twilight 7:15 AM CDT 8:29 PM CDT
Nautical Twilight 6:45 AM CDT 8:59 PM CDT
Astronomical Twilight 6:16 AM CDT 9:29 PM CDT
Moon 6:06 AM CDT (3/28) 6:08 PM CDT (3/28)
Length of Visible Light 13h 14m
Length of Day
12h 24m
Waning Crescent, 6% of the Moon is Illuminated
Mar 28
Waning Crescent
Mar 30
New
Apr 7
First Quarter
Apr 15
Full
Apr 22
Last Quarter

Hourly Weather History & Observations

Time (CDT) Temp. Windchill Dew Point Humidity Pressure Visibility Wind Dir Wind Speed Gust Speed Precip Events Conditions
12:53 AM 53.1 °F - 26.1 °F 35% 29.68 in 10.0 mi SE 6.9 mph - N/A   Scattered Clouds
1:53 AM 48.9 °F - 25.0 °F 39% 29.68 in 10.0 mi NNE 9.2 mph - N/A   Mostly Cloudy
2:53 AM 50.0 °F - 26.1 °F 39% 29.69 in 10.0 mi NW 6.9 mph - N/A   Mostly Cloudy
3:53 AM 50.0 °F - 28.0 °F 43% 29.69 in 10.0 mi NE 15.0 mph - N/A   Overcast
4:53 AM 48.9 °F - 30.9 °F 50% 29.71 in 10.0 mi NE 10.4 mph - N/A   Overcast
5:53 AM 48.9 °F - 33.1 °F 54% 29.75 in 10.0 mi NNE 5.8 mph - N/A   Overcast
6:53 AM 46.0 °F 42.5 °F 33.1 °F 61% 29.77 in 10.0 mi NNW 6.9 mph - N/A   Overcast
7:53 AM 44.1 °F 40.8 °F 33.1 °F 65% 29.80 in 10.0 mi North 5.8 mph - N/A   Mostly Cloudy
8:53 AM 46.9 °F - 35.1 °F 63% 29.84 in 10.0 mi North 8.1 mph - N/A   Mostly Cloudy
9:53 AM 53.1 °F - 36.0 °F 52% 29.84 in 10.0 mi NNE 8.1 mph - N/A   Partly Cloudy
10:53 AM 57.9 °F - 36.0 °F 44% 29.87 in 10.0 mi NNW 4.6 mph - N/A   Partly Cloudy
11:53 AM 64.0 °F - 33.1 °F 31% 29.86 in 10.0 mi WNW 9.2 mph - N/A   Clear
12:53 PM 70.0 °F - 28.0 °F 21% 29.84 in 10.0 mi WNW 9.2 mph 17.3 mph N/A   Clear
1:53 PM 73.9 °F - 19.0 °F 13% 29.82 in 10.0 mi WNW 25.3 mph 34.5 mph N/A   Partly Cloudy
2:53 PM 75.0 °F - 19.0 °F 12% 29.81 in 10.0 mi NW 21.9 mph 35.7 mph N/A   Partly Cloudy
3:53 PM 75.0 °F - 23.0 °F 14% 29.81 in 10.0 mi North 13.8 mph 28.8 mph N/A   Partly Cloudy
4:53 PM 75.0 °F - 23.0 °F 14% 29.83 in 10.0 mi North 12.7 mph 24.2 mph N/A   Partly Cloudy
5:53 PM 73.9 °F - 21.9 °F 14% 29.83 in 10.0 mi NNE 9.2 mph - N/A   Partly Cloudy
6:53 PM 73.0 °F - 21.0 °F 14% 29.86 in 10.0 mi North 6.9 mph - N/A   Partly Cloudy
7:53 PM 64.0 °F - 33.1 °F 31% 29.93 in 7.0 mi NE 21.9 mph - N/A   Partly Cloudy
8:53 PM 57.9 °F - 33.1 °F 39% 30.00 in 10.0 mi ENE 11.5 mph - N/A   Partly Cloudy
9:53 PM 54.0 °F - 30.9 °F 41% 30.04 in 10.0 mi ENE 9.2 mph - N/A   Partly Cloudy
10:53 PM 51.1 °F - 30.9 °F 46% 30.06 in 10.0 mi ENE 10.4 mph - N/A   Clear
11:53 PM 48.0 °F - 28.9 °F 48% 30.08 in 10.0 mi ENE 9.2 mph - N/A   Clear